SCP
0 0 0 0 0 0 0 0 0 0 0 0 0 0 0 0 0 0 0 0 0 0 0 0 0 0 0 0 0 0 0 0 0 0 0 0 0 0 0 0 0 0 0
0 0 0 0 0 0 0 0 0 0 0 0 0 0 0 0 0 0 0 0 0 0 0 0 0 0 0 0 0 0 0 0 0 0 0 0 0 0 0 0 0 0 0
0 0 0 0 0 0 0 0 0 0 0 0 0 0 0 0 0 0 0 0 0 0 0 0 0 0 0 0 0 0 0 0 0 0 0 0 0 0 0 0 0 0 0
0 0 0 0 0 0 0 0 0 0 0 0 0 0 0 0 0 0 0 0 0 0 0 0 0 0 0 0 0 0 0 0 0 0 0 0 0 0 0 0 0 0 0
0 0 0 0 0 0 0 0 0 0 0 0 0 0 0 0 0 0 0 0 0 0 0 0 0 0 0 0 0 0 0 0 0 0 0 0 0 0 0 0 0 0 0
0 0 0 0 0 0 0 0 0 0 0 0 0 0 0 0 0 0 0 0 0 0 0 0 0 0 0 0 0 0 0 0 0 0 0 0 0 0 0 0 0 0 0
0 0 0 0 0 0 0 0 0 0 0 0 0 0 0 0 0 0 0 0 0 0 0 0 0 0 0 0 0 0 0 0 0 0 0 0 0 0 0 0 0 0 0
0 0 0 0 0 0 0 0 0 0 0 0 0 0 0 0 0 0 0 0 0 0 0 0 0 0 0 0 0 0 0 0 0 0 0 0 0 0 0 0 0 0 0
0 0 0 0 0 0 0 0 0 0 0 0 0 0 0 0 0 0 0 0 0 0 0 0 0 0 0 0 0 0 0 0 0 0 0 0 0 0 0 0 0 0 0
0 0 0 0 0 0 0 0 0 0 0 0 0 0 0 0 0 0 0 0 0 0 0 0 0 0 0 0 0 0 0 0 0 0 0 0 0 0 0 0 0 0 0
0 0 0 0 0 0 0 0 0 0 0 0 0 0 0 0 0 0 0 0 0 0 0 0 0 0 0 0 0 0 0 0 0 0 0 0 0 0 0 0 0 0 0
0 0 0 0 0 0 0 0 0 0 0 0 0 0 0 0 0 0 0 0 0 0 0 0 0 0 0 0 0 0 0 0 0 0 0 0 0 0 0 0 0 0 0
0 0 0 0 0 0 0 0 0 0 0 0 0 0 0 0 0 0 0 0 0 0 0 0 0 0 0 0 0 0 0 0 0 0 0 0 0 0 0 0 0 0 0
0 0 0 0 0 0 0 0 0 0 0 0 0 0 0 0 0 0 0 0 0 0 0 0 0 0 0 0 0 0 0 0 0 0 0 0 0 0 0 0 0 0 0
0 0 0 0 0 0 0 0 0 0 0 0 0 0 0 0 0 0 0 0 0 0 0 0 0 0 0 0 0 0 0 0 0 0 0 0 0 0 0 0 0 0 0
0 0 0 0 0 0 0 0 0 0 0 0 0 0 0 0 0 0 0 0 0 0 0 0 0 0 0 0 0 0 0 0 0 0 0 0 0 0 0 0 0 0 0
0 0 0 0 0 0 0 0 0 0 0 0 0 0 0 0 0 0 0 0 0 0 0 0 0 0 0 0 0 0 0 0 0 0 0 0 0 0 0 0 0 0 0
0 0 0 0 0 0 0 0 0 0 0 0 0 0 0 0 0 0 0 0 0 0 0 0 0 0 0 0 0 0 0 0 0 0 0 0 0 0 0 0 0 0 0
0 0 0 0 0 0 0 0 0 0 0 0 0 0 0 0 0 0 0 0 0 0 0 0 0 0 0 0 0 0 0 0 0 0 0 0 0 0 0 0 0 0 0
0 0 0 0 0 0 0 0 0 0 0 0 0 0 0 0 0 0 0 0 0 0 0 0 0 0 0 0 0 0 0 0 0 0 0 0 0 0 0 0 0 0 0
0 0 0 0 0 0 0 0 0 0 0 0 0 0 0 0 0 0 0 0 0 0 0 0 0 0 0 0 0 0 0 0 0 0 0 0 0 0 0 0 0 0 0
0 0 0 0 0 0 0 0 0 0 0 0 0 0 0 0 0 0 0 0 0 0 0 0 0 0 0 0 0 0 0 0 0 0 0 0 0 0 0 0 0 0 0
0 0 0 0 0 0 0 0 0 0 0 0 0 0 0 0 0 0 0 0 0 0 0 0 0 0 0 0 0 0 0 0 0 0 0 0 0 0 0 0 0 0 0
0 0 0 0 0 0 0 0 0 0 0 0 0 0 0 0 0 0 0 0 0 0 0 0 0 0 0 0 0 0 0 0 0 0 0 0 0 0 0 0 0 0 0
0 0 0 0 0 0 0 0 0 0 0 0 0 0 0 0 0 0 0 0 0 0 0 0 0 0 0 0 0 0 0 0 0 0 0 0 0 0 0 0 0 0 0
0 0 0 0 0 0 0 0 0 0 0 0 0 0 0 0 0 0 0 0 0 0 0 0 0 0 0 0 0 0 0 0 0 0 0 0 0 0 0 0 0 0 0
Wind_Speed
1 1 2 5 6 7 9 10 10 11 12 12 13 15 16 16 15 16 16 16 15 15 15 15 16 16 16 15 15 16 15 15 14 14 14 13 13 13 13 13 12 9 13
1 0 3 5 7 8 9 9 10 11 12 12 14 15 15 15 15 15 15 15 15 15 15 16 16 16 16 15 16 15 15 14 14 13 13 12 12 12 11 12 12 8 12
2 1 2 5 7 8 8 9 10 11 11 12 13 14 14 14 15 15 15 15 15 15 15 15 15 15 15 15 15 14 14 13 13 12 11 7 8 10 10 12 12 12 12
3 1 2 6 7 8 8 9 10 10 11 11 12 13 14 14 15 15 14 15 15 15 15 15 15 15 15 14 14 13 13 12 12 11 6 5 5 9 10 11 12 11 11
2 2 2 7 7 7 8 8 9 10 10 11 11 12 13 14 14 14 14 14 14 14 14 14 14 14 14 13 13 12 12 11 11 8 5 4 4 7 9 10 11 11 10
3 2 2 6 7 7 8 8 8 9 9 10 11 11 12 13 13 13 13 13 13 13 13 13 13 13 13 12 11 11 10 10 8 5 5 4 4 7 9 9 10 10 10
3 2 2 5 6 7 7 7 7 7 8 9 10 10 11 12 12 12 12 12 11 11 11 12 12 12 11 11 10 9 9 9 6 4 4 4 4 7 8 9 9 9 9
3 2 2 4 6 6 6 6 6 7 7 8 10 10 10 11 11 11 11 10 10 10 10 11 11 11 10 10 9 9 8 7 5 5 4 4 6 7 7 8 8 9 9
3 2 2 1 2 4 5 5 5 6 7 8 9 9 10 10 10 10 10 10 10 10 10 10 10 10 9 9 8 8 7 7 4 3 4 3 5 6 7 7 7 7 8
2 2 2 2 2 2 2 4 4 5 6 6 7 8 9 9 9 9 8 9 9 9 9 9 9 9 8 7 7 7 6 5 4 3 2 3 6 6 6 6 6 6 7
2 1 1 2 2 2 2 2 3 3 4 4 4 6 6 3 4 4 6 7 7 8 8 8 7 7 7 6 6 6 5 2 3 2 1 3 5 5 5 6 6 6 6
2 1 1 1 1 1 1 2 2 2 2 2 2 2 3 3 2 3 5 6 6 6 6 7 6 5 4 3 4 4 2 3 2 1 1 3 4 4 4 5 5 4 5
3 2 1 1 1 1 1 1 1 1 1 2 2 3 3 2 2 1 2 2 3 4 3 4 3 3 3 2 2 2 2 2 1 1 1 2 2 3 3 4 4 4 4
3 2 1 1 1 1 1 1 1 1 1 1 1 2 3 2 2 1 2 2 2 2 3 2 2 3 3 3 3 2 2 1 1 1 1 2 2 2 3 3 3 3 3
4 3 2 2 2 1 1 0 1 1 1 1 1 2 3 2 2 2 2 2 2 3 3 3 3 3 3 3 2 2 2 2 2 1 1 2 2 2 2 2 3 2 2
4 3 3 3 2 2 1 1 1 1 1 1 1 2 3 3 3 2 2 2 2 3 3 3 4 3 3 3 3 3 2 2 2 2 1 1 2 2 2 2 2 2 2
5 4 4 4 3 2 2 1 1 1 1 1 1 2 3 3 3 3 3 3 2 3 4 4 4 3 3 3 3 2 2 2 2 2 1 1 1 1 2 2 1 1 1
4 4 4 4 3 2 2 1 1 1 2 1 1 2 3 4 4 3 3 2 3 3 3 3 3 4 3 2 2 1 2 2 2 2 2 1 1 1 1 1 1 0 1
5 5 4 3 3 3 2 2 2 1 1 1 1 2 2 3 4 3 2 2 3 3 3 3 3 3 3 3 2 2 2 2 1 1 2 1 1 1 1 1 1 1 1
4 4 4 4 3 3 2 2 2 1 1 1 1 2 2 2 3 4 3 3 3 3 3 3 4 3 2 3 3 3 2 2 2 1 1 1 1 1 1 1 1 2 2
4 4 4 4 4 3 3 2 2 1 1 1 1 2 2 3 3 3 3 3 4 4 4 4 4 4 2 3 3 2 2 2 2 1 0 0 0 0 0 0 1 1 2
6 6 5 5 4 4 3 3 2 2 1 1 1 1 2 2 3 3 3 3 3 4 4 4 4 3 2 2 2 2 1 2 2 1 1 0 0 0 0 1 1 1 2
7 7 7 6 5 4 4 3 2 2 2 1 1 0 1 2 3 3 3 3 3 4 4 4 4 4 3 1 1 3 3 2 0 1 1 1 0 0 1 1 1 2 2
8 7 7 6 5 4 4 4 4 3 2 2 1 1 1 1 2 3 3 3 3 3 4 4 3 3 3 2 1 1 2 3 2 0 1 1 0 0 1 1 1 1 1
7 7 6 6 5 4 4 5 4 3 2 1 1 1 1 1 1 2 3 3 3 3 4 4 3 3 3 3 3 2 2 1 2 2 1 1 1 1 1 1 1 1 1
6 6 6 6 5 5 5 5 5 5 4 3 2 1 1 0 0 1 2 3 3 3 4 4 4 4 4 3 3 3 3 3 3 3 2 1 1 1 1 1 1 1 1
Wind_Direction
288 291 63 78 79 83 88 90 91 93 97 103 110 117 121 123 125 124 125 125 124 122 123 122 121 120 118 114 114 117 118 120 121 124 125 124 123 122 121 118 115 116 119
174 278 96 87 86 86 89 92 92 93 97 101 108 115 120 123 123 122 122 124 125 123 121 119 121 121 119 117 115 118 116 120 121 122 122 121 122 121 121 122 121 123 124
115 85 111 97 94 91 91 92 94 96 100 103 109 117 120 120 120 121 120 124 125 124 122 120 121 121 122 119 116 116 115 115 115 115 111 106 117 121 123 125 124 125 124
115 95 111 106 100 96 94 96 99 101 102 105 110 116 119 120 119 120 120 123 125 126 125 122 121 123 122 120 118 117 116 115 114 110 100 104 115 126 127 126 126 127 126
99 88 124 111 106 101 99 101 104 106 107 110 113 117 120 122 122 122 122 124 126 126 127 125 125 124 122 121 119 116 116 114 111 104 102 99 102 126 129 129 131 130 129
91 76 105 110 107 103 101 104 105 109 114 115 119 119 123 126 127 127 126 126 126 128 129 129 128 127 125 122 119 117 116 114 106 101 106 112 118 134 134 132 132 133 133
94 66 74 110 107 101 102 104 105 109 118 125 127 125 125 127 130 131 130 130 130 132 132 131 131 130 128 125 121 117 117 117 110 109 116 122 133 138 136 134 136 138 138
104 75 60 114 112 105 102 100 101 106 119 127 133 133 131 132 134 134 134 133 134 133 133 133 133 132 129 127 124 121 121 125 120 118 121 131 143 145 144 143 145 144 145
90 72 48 70 97 106 108 103 101 105 111 121 132 137 136 137 138 138 138 139 138 135 134 134 134 133 131 128 126 122 121 123 115 120 129 135 149 153 154 154 155 155 156
83 58 50 55 61 63 74 102 107 107 111 120 130 137 138 139 141 143 141 143 143 140 136 134 135 131 126 124 124 120 111 106 105 115 127 148 157 162 165 165 166 167 169
99 56 64 65 64 65 58 69 77 90 95 105 121 133 131 113 118 134 144 150 150 145 140 135 130 127 122 117 117 113 102 98 108 111 134 152 162 170 174 177 178 179 178
176 194 119 99 91 85 79 55 40 47 53 70 82 98 103 105 118 134 142 159 156 147 138 133 127 120 110 97 103 100 96 107 110 128 148 156 166 175 177 180 181 184 185
181 186 180 162 123 119 65 64 56 50 55 72 93 106 105 104 114 118 128 142 124 118 106 106 100 96 99 101 97 101 105 104 103 132 148 150 159 174 176 172 176 182 189
160 191 181 160 146 147 118 78 82 74 78 93 106 120 123 120 109 116 122 127 113 110 111 101 101 99 97 101 106 102 95 99 103 113 131 136 138 157 163 171 174 181 183
173 187 176 157 160 157 124 121 115 122 119 119 117 130 138 136 138 139 136 122 122 122 129 120 111 104 99 94 97 99 90 88 102 104 87 119 116 123 131 144 163 176 183
182 181 169 159 163 149 136 138 101 99 93 94 115 143 144 142 138 135 130 123 126 133 134 126 124 114 101 96 94 93 96 94 103 115 96 79 111 121 133 145 155 173 184
183 176 172 169 160 154 149 149 113 92 99 103 109 123 134 136 138 139 133 133 136 131 127 121 118 108 107 104 98 99 99 100 106 108 102 74 49 98 134 135 150 177 185
173 171 179 172 158 163 156 137 110 106 118 116 106 102 118 131 136 132 135 137 132 127 126 128 126 118 116 113 100 84 85 90 100 111 110 106 92 72 77 99 130 171 210
178 174 168 165 163 164 153 124 106 107 123 128 114 114 127 136 139 137 137 133 132 129 130 138 121 126 129 126 110 81 68 70 71 96 102 101 98 81 50 15 347 337 285
176 171 164 163 160 146 127 105 92 85 96 108 119 138 142 144 145 141 137 142 141 134 133 133 126 121 126 119 99 78 66 69 71 76 109 107 111 112 62 3 338 324 324
167 175 172 168 168 146 136 141 144 150 150 123 139 151 152 150 143 143 149 150 147 149 153 146 134 123 120 122 102 72 42 53 65 53 56 83 83 216 118 325 316 308 313
180 184 177 179 173 166 159 153 149 146 148 153 139 135 153 152 154 153 156 159 154 148 148 149 146 137 152 149 131 117 54 20 24 29 39 130 281 263 248 263 271 276 291
190 187 185 186 179 174 159 127 110 87 66 65 81 153 163 154 155 150 156 159 156 156 163 168 168 163 169 169 153 150 156 194 326 5 23 21 12 292 264 281 278 279 274
198 186 182 184 179 172 159 151 151 151 166 188 163 160 130 134 144 147 158 164 159 159 166 180 178 168 157 177 171 173 167 159 164 201 341 7 4 297 283 284 292 285 279
189 181 179 177 179 174 166 164 160 168 179 146 107 110 94 114 136 153 165 164 166 170 177 182 173 167 172 183 177 164 153 153 164 170 230 300 340 311 284 282 292 294 285
179 173 168 170 180 174 169 170 172 177 173 161 166 166 166 135 144 172 172 173 178 180 183 190 182 178 191 190 185 179 172 171 178 174 191 229 273 300 312 292 284 287 283